Location: Unspecified
(0.0000°N, 0.0000°E)
Time: 06:47:42
(UTC+00:00)

Vanguard 1 - Pass Details

Date: 21 December 2018
Orbit: 654 x 3829 km, 34.2° (Epoch: 15 June)

Event Time Altitude Azimuth Distance (km) Brightness Sun altitude
Rises 23:43:19 0° 229° (SW) 6,837 14.6 -66.3°
Reaches altitude 10° 23:48:40 10° 225° (SW) 5,328 13.9 -66.4°
Enters shadow 23:52:42 20° 221° (SW) 4,135 13.3 -66.5°
